User: anonymous   Login
Location: Unspecified
(0.0000°N, 0.0000°E)
Time: 06:14:53
(UTC+00:00)
Language:

ERTS 1 - Orbit

View from above orbital plane
View from above orbital plane
View from above satellite
View from above satellite

Ground track
Ground track

The orbit data is extracted from the following two-line orbital elements,

1 06126U 72058A   18199.51262327  .00000242  00000-0  20362-3 0  9997
2 06126  99.1173 153.8823 0007297 211.2407 148.8322 13.97531911344389
Epoch (UTC): 18 July 2018 12:18:10
Eccentricity: 0.0007297
inclination: 99.1173°
perigee height: 897 km
apogee height: 907 km
right ascension of ascending node: 153.8823°
argument of perigee: 211.2407°
revolutions per day: 13.97531911
mean anomaly at epoch: 148.8322°
orbit number at epoch: 34438

The dashed part of the orbit path shows where the satellite is in the earth's shadow,  

DLR